TimeEST,TemperatureF,Dew PointF,Humidity,Sea Level PressureIn,VisibilityMPH,Wind Direction,Wind SpeedMPH,Gust SpeedMPH,PrecipitationIn,Events,Conditions,WindDirDegrees,DateUTC
12:15 AM,41.0,33.8,76,30.18,10.0,NNE,8.1,-,N/A,,Clear,30,2012-11-21 05:15:00
12:35 AM,41.0,33.8,76,30.18,10.0,NNE,8.1,-,N/A,,Clear,30,2012-11-21 05:35:00
12:55 AM,41.0,32.0,70,30.18,10.0,NNE,6.9,-,N/A,,Clear,30,2012-11-21 05:55:00
1:15 AM,39.2,33.8,81,30.18,10.0,NNE,6.9,-,N/A,,Clear,30,2012-11-21 06:15:00
1:35 AM,39.2,32.0,75,30.18,10.0,NNE,6.9,-,N/A,,Clear,20,2012-11-21 06:35:00
1:55 AM,39.2,33.8,81,30.19,10.0,NNE,8.1,-,N/A,,Clear,30,2012-11-21 06:55:00
2:15 AM,39.2,32.0,75,30.19,10.0,NNE,5.8,-,N/A,,Clear,30,2012-11-21 07:15:00
2:35 AM,39.2,33.8,81,30.19,10.0,North,4.6,-,N/A,,Clear,10,2012-11-21 07:35:00
2:55 AM,39.2,33.8,81,30.19,10.0,NNE,6.9,-,N/A,,Clear,20,2012-11-21 07:55:00
3:15 AM,39.2,33.8,81,30.19,10.0,NNE,8.1,-,N/A,,Clear,20,2012-11-21 08:15:00
3:35 AM,39.2,33.8,81,30.19,10.0,NNE,9.2,-,N/A,,Clear,30,2012-11-21 08:35:00
3:55 AM,39.2,33.8,81,30.19,10.0,NNE,9.2,-,N/A,,Clear,30,2012-11-21 08:55:00
4:15 AM,39.2,35.6,87,30.19,10.0,NNE,9.2,-,N/A,,Clear,30,2012-11-21 09:15:00
4:35 AM,39.2,35.6,87,30.20,10.0,NNE,9.2,-,N/A,,Clear,20,2012-11-21 09:35:00
4:55 AM,39.2,35.6,87,30.20,10.0,NNE,10.4,-,N/A,,Clear,30,2012-11-21 09:55:00
5:15 AM,39.2,35.6,87,30.20,10.0,NNE,9.2,-,N/A,,Clear,30,2012-11-21 10:15:00
5:35 AM,39.2,35.6,87,30.21,10.0,NNE,8.1,-,N/A,,Clear,30,2012-11-21 10:35:00
5:55 AM,39.2,35.6,87,30.22,10.0,NNE,9.2,-,N/A,,Clear,20,2012-11-21 10:55:00
6:15 AM,37.4,35.6,93,30.22,10.0,NNE,9.2,-,N/A,,Clear,30,2012-11-21 11:15:00
6:35 AM,37.4,35.6,93,30.23,10.0,NNE,10.4,-,N/A,,Clear,30,2012-11-21 11:35:00
6:55 AM,39.2,35.6,87,30.24,10.0,NNE,9.2,-,N/A,,Clear,30,2012-11-21 11:55:00
7:15 AM,37.4,37.4,100,30.24,10.0,NE,10.4,-,N/A,,Clear,40,2012-11-21 12:15:00
7:35 AM,37.4,35.6,93,30.25,10.0,NNE,9.2,-,N/A,,Clear,30,2012-11-21 12:35:00
7:55 AM,37.4,37.4,100,30.26,10.0,NNE,9.2,-,N/A,,Mostly Cloudy,30,2012-11-21 12:55:00
8:15 AM,39.2,37.4,93,30.26,10.0,NNE,9.2,-,N/A,,Overcast,30,2012-11-21 13:15:00
8:35 AM,39.2,37.4,93,30.26,9.0,NNE,9.2,-,N/A,,Overcast,30,2012-11-21 13:35:00
8:55 AM,39.2,37.4,93,30.26,9.0,NNE,9.2,-,N/A,,Overcast,30,2012-11-21 13:55:00
9:15 AM,39.2,37.4,93,30.27,10.0,NNE,8.1,-,N/A,,Overcast,30,2012-11-21 14:15:00
9:55 AM,39.2,37.4,93,30.27,10.0,NNE,11.5,16.1,N/A,,Overcast,20,2012-11-21 14:55:00
10:15 AM,39.2,37.4,93,30.27,10.0,NNE,9.2,-,N/A,,Mostly Cloudy,20,2012-11-21 15:15:00
10:35 AM,41.0,37.4,87,30.26,10.0,NNE,8.1,-,N/A,,Clear,30,2012-11-21 15:35:00
10:55 AM,41.0,37.4,87,30.26,10.0,NNE,9.2,-,N/A,,Clear,30,2012-11-21 15:55:00
11:15 AM,42.8,39.2,87,30.25,10.0,NE,9.2,-,N/A,,Clear,40,2012-11-21 16:15:00
11:35 AM,42.8,37.4,81,30.25,10.0,NNE,6.9,-,N/A,,Clear,30,2012-11-21 16:35:00
11:55 AM,42.8,39.2,87,30.24,10.0,NE,10.4,-,N/A,,Clear,50,2012-11-21 16:55:00
12:15 PM,42.8,39.2,87,30.24,10.0,NNE,6.9,-,N/A,,Clear,30,2012-11-21 17:15:00
12:35 PM,44.6,39.2,81,30.23,10.0,NNE,8.1,-,N/A,,Clear,20,2012-11-21 17:35:00
12:55 PM,42.8,39.2,87,30.23,10.0,NNE,5.8,-,N/A,,Clear,20,2012-11-21 17:55:00
1:15 PM,42.8,39.2,87,30.24,10.0,NNE,9.2,-,N/A,,Mostly Cloudy,30,2012-11-21 18:15:00
1:35 PM,42.8,39.2,87,30.24,10.0,NNE,6.9,-,N/A,,Overcast,30,2012-11-21 18:35:00
1:55 PM,44.6,39.2,81,30.24,10.0,NNE,5.8,-,N/A,,Overcast,20,2012-11-21 18:55:00
2:15 PM,44.6,39.2,81,30.24,10.0,NNE,4.6,-,N/A,,Overcast,30,2012-11-21 19:15:00
2:55 PM,46.4,41.0,81,30.24,10.0,NE,6.9,-,N/A,,Mostly Cloudy,50,2012-11-21 19:55:00
3:15 PM,44.6,41.0,87,30.25,10.0,NNE,4.6,-,N/A,,Clear,30,2012-11-21 20:15:00
3:35 PM,44.6,39.2,81,30.25,10.0,NNE,4.6,-,N/A,,Clear,30,2012-11-21 20:35:00
3:55 PM,42.8,39.2,87,30.24,10.0,NE,5.8,-,N/A,,Clear,40,2012-11-21 20:55:00
4:15 PM,42.8,39.2,87,30.24,10.0,NNE,3.5,-,N/A,,Clear,20,2012-11-21 21:15:00
4:35 PM,42.8,39.2,87,30.25,10.0,NNE,4.6,-,N/A,,Clear,20,2012-11-21 21:35:00
5:15 PM,42.8,39.2,87,30.25,10.0,NNE,4.6,-,N/A,,Clear,20,2012-11-21 22:15:00
5:35 PM,42.8,39.2,87,30.25,10.0,NNE,3.5,-,N/A,,Clear,20,2012-11-21 22:35:00
5:55 PM,39.2,37.4,93,30.26,10.0,NNE,4.6,-,N/A,,Clear,30,2012-11-21 22:55:00
6:15 PM,35.6,35.6,100,30.26,10.0,Calm,Calm,-,N/A,,Clear,0,2012-11-21 23:15:00
6:35 PM,35.6,33.8,93,30.27,5.0,Calm,Calm,-,N/A,,Clear,0,2012-11-21 23:35:00
6:55 PM,33.8,30.2,87,30.27,10.0,Calm,Calm,-,N/A,,Clear,0,2012-11-21 23:55:00
7:15 PM,33.8,33.8,100,30.27,4.0,Calm,Calm,-,N/A,,Clear,0,2012-11-22 00:15:00
7:35 PM,32.0,32.0,100,30.27,7.0,Calm,Calm,-,N/A,,Clear,0,2012-11-22 00:35:00
7:55 PM,33.8,32.0,93,30.27,5.0,Calm,Calm,-,N/A,,Clear,0,2012-11-22 00:55:00
8:15 PM,32.0,30.2,93,30.27,1.8,Calm,Calm,-,N/A,,Clear,0,2012-11-22 01:15:00
8:35 PM,32.0,30.2,93,30.27,1.8,Calm,Calm,-,N/A,,Clear,0,2012-11-22 01:35:00
8:55 PM,30.2,30.2,100,30.27,3.0,Calm,Calm,-,N/A,,Clear,0,2012-11-22 01:55:00
9:15 PM,30.2,30.2,100,30.27,5.0,Calm,Calm,-,N/A,,Clear,0,2012-11-22 02:15:00
9:35 PM,32.0,32.0,100,30.27,2.0,Calm,Calm,-,N/A,,Clear,0,2012-11-22 02:35:00
9:55 PM,30.2,30.2,100,30.26,1.0,Calm,Calm,-,N/A,,Clear,0,2012-11-22 02:55:00
10:15 PM,28.4,26.6,93,30.26,9.0,Calm,Calm,-,N/A,,Clear,0,2012-11-22 03:15:00
10:35 PM,30.2,28.4,93,30.26,5.0,Calm,Calm,-,N/A,,Clear,0,2012-11-22 03:35:00
10:55 PM,30.2,30.2,100,30.26,1.5,Calm,Calm,-,N/A,,Clear,0,2012-11-22 03:55:00
11:15 PM,30.2,28.4,93,30.26,1.2,Calm,Calm,-,N/A,,Clear,0,2012-11-22 04:15:00
11:35 PM,28.4,28.4,100,30.25,4.0,Calm,Calm,-,N/A,,Clear,0,2012-11-22 04:35:00
11:55 PM,30.2,28.4,93,30.25,1.5,Calm,Calm,-,N/A,,Clear,0,2012-11-22 04:55:00